Location: Asheville, NC
(35.6000°N, 82.5500°W)
Time: 05:21:54
(UTC-04:00)

Vanguard 3 - Visible Passes

Search period start: 17 October 2017 00:00
Search period end: 27 October 2017 00:00
Orbit: 510 x 3263 km, 33.3° (Epoch: 16 October)

Date Brightness Start Highest point End Pass type
(mag) Time Alt. Az. Time Alt. Az. Time Alt. Az.
17 Oct 10.8 03:10:04 16° SE 03:10:04 16° SE 03:15:10 10° ESE visible
17 Oct 9.6 05:14:42 21° SSW 05:22:38 38° SSE 05:30:24 10° E visible
18 Oct 10.2 04:05:33 28° SSE 04:07:39 29° SSE 04:16:26 10° E visible
18 Oct 9.0 06:10:11 14° SW 06:21:34 55° SSE 06:28:46 10° E visible
19 Oct 10.7 02:56:19 19° SE 02:56:19 19° SE 03:01:12 10° ESE visible
19 Oct 9.5 05:00:56 31° SSW 05:06:51 45° SSE 05:15:28 10° E visible
19 Oct 8.5 07:08:29 10° WSW 07:20:19 71° S 07:26:44 10° E visible
20 Oct 10.1 03:51:37 36° SSE 03:51:40 36° SSE 04:01:35 10° E visible
20 Oct 9.0 05:56:14 22° WSW 06:05:52 62° SSE 06:13:45 10° E visible
21 Oct 10.7 02:42:14 20° ESE 02:42:14 20° ESE 02:46:38 10° E visible
21 Oct 9.5 04:46:50 43° SSW 04:50:56 52° SSE 05:00:25 10° E visible
21 Oct 8.6 06:51:46 10° WSW 07:04:43 75° S 07:11:43 10° E visible
22 Oct 10.0 03:37:23 40° SE 03:37:23 40° SE 03:46:31 10° E visible
22 Oct 9.0 05:41:59 30° WSW 05:50:04 68° SSE 05:58:40 10° E visible
23 Oct 10.8 02:27:52 20° ESE 02:27:52 20° ESE 02:31:42 10° E visible
23 Oct 9.4 04:32:27 54° SSW 04:34:54 59° SSE 04:45:15 10° E visible
23 Oct 8.7 06:37:03 15° W 06:49:04 78° S 06:56:40 10° E visible
24 Oct 10.0 03:22:53 42° ESE 03:22:53 42° ESE 03:31:18 10° E visible
24 Oct 9.1 05:27:28 39° WSW 05:34:10 73° S 05:43:30 10° E visible
25 Oct 10.8 02:13:16 19° E 02:13:16 19° E 02:16:31 10° E visible
25 Oct 9.4 04:17:51 64° S 04:18:44 64° SSE 04:29:58 10° E visible
25 Oct 8.8 06:22:25 21° W 06:33:19 80° S 06:41:34 10° E visible
26 Oct 10.1 03:08:11 41° ESE 03:08:11 41° ESE 03:15:55 10° E visible
26 Oct 9.1 05:12:46 48° WSW 05:18:10 77° S 05:28:18 10° E visible
26 Oct 8.7 07:18:50 10° W 07:32:14 74° SSW 07:39:27 10° ESE visible
